| time (UTC) | temp C | wind direction | speed KPH | gust KPH | rain 1hr cm | rain 24hr cm | rain mn cm | humidity % | barometer mb |
| 20260906215322 | 28 | 151 | 11.3 | 14.5 | 0.00 | 0.00 | 0.00 | 36 | 1021.0 |
| 20260906214822 | 28 | 174 | 11.3 | 14.5 | 0.00 | 0.00 | 0.00 | 36 | 1021.0 |
| 20260906214322 | 28 | 161 | 11.3 | 20.9 | 0.00 | 0.00 | 0.00 | 36 | 1021.0 |
| 20260906213822 | 28 | 165 | 11.3 | 16.1 | 0.00 | 0.00 | 0.00 | 37 | 1021.0 |
| 20260906213323 | 28 | 162 | 9.7 | 14.5 | 0.00 | 0.00 | 0.00 | 37 | 1021.0 |
| 20260906212822 | 28 | 156 | 8.0 | 14.5 | 0.00 | 0.00 | 0.00 | 37 | 1021.0 |
| 20260906212322 | 28 | 180 | 12.9 | 17.7 | 0.00 | 0.00 | 0.00 | 37 | 1022.0 |
| 20260906211822 | 28 | 155 | 12.9 | 16.1 | 0.00 | 0.00 | 0.00 | 38 | 1021.0 |
| 20260906211322 | 28 | 200 | 11.3 | 14.5 | 0.00 | 0.00 | 0.00 | 37 | 1022.0 |
| 20260906210822 | 28 | 167 | 14.5 | 17.7 | 0.00 | 0.00 | 0.00 | 35 | 1022.0 |
| 20260906210322 | 28 | 161 | 14.5 | 16.1 | 0.00 | 0.00 | 0.00 | 37 | 1022.0 |
| 20260906205822 | 28 | 168 | 12.9 | 17.7 | 0.00 | 0.00 | 0.00 | 37 | 1022.0 |
| 20260906205322 | 29 | 169 | 14.5 | 19.3 | 0.00 | 0.00 | 0.00 | 36 | 1022.0 |
| 20260906204822 | 28 | 137 | 9.7 | 14.5 | 0.00 | 0.00 | 0.00 | 36 | 1022.0 |
| 20260906204322 | 28 | 166 | 11.3 | 17.7 | 0.00 | 0.00 | 0.00 | 38 | 1022.0 |
| 20260906203823 | 28 | 178 | 11.3 | 16.1 | 0.00 | 0.00 | 0.00 | 37 | 1022.0 |
| 20260906203323 | 28 | 169 | 11.3 | 14.5 | 0.00 | 0.00 | 0.00 | 38 | 1022.0 |
| 20260906202822 | 29 | 131 | 9.7 | 14.5 | 0.00 | 0.00 | 0.00 | 35 | 1022.0 |
| 20260906202322 | 28 | 131 | 11.3 | 16.1 | 0.00 | 0.00 | 0.00 | 35 | 1022.0 |
| 20260906201823 | 28 | 178 | 11.3 | 16.1 | 0.00 | 0.00 | 0.00 | 35 | 1022.0 |
| 20260906201322 | 28 | 174 | 11.3 | 16.1 | 0.00 | 0.00 | 0.00 | 36 | 1022.0 |
| 20260906200822 | 28 | 156 | 9.7 | 14.5 | 0.00 | 0.00 | 0.00 | 35 | 1022.0 |
| 20260906200322 | 28 | 158 | 12.9 | 17.7 | 0.00 | 0.00 | 0.00 | 35 | 1022.0 |
| 20260906195823 | 28 | 166 | 8.0 | 14.5 | 0.00 | 0.00 | 0.00 | 35 | 1022.0 |
| 20260906195322 | 28 | 174 | 8.0 | 12.9 | 0.00 | 0.00 | 0.00 | 36 | 1022.0 |
| 20260906194822 | 28 | 143 | 9.7 | 14.5 | 0.00 | 0.00 | 0.00 | 35 | 1022.0 |
| 20260906194322 | 28 | 184 | 9.7 | 14.5 | 0.00 | 0.00 | 0.00 | 36 | 1022.0 |
| 20260906193822 | 28 | 192 | 12.9 | 16.1 | 0.00 | 0.00 | 0.00 | 36 | 1022.0 |
| 20260906193322 | 28 | 170 | 9.7 | 12.9 | 0.00 | 0.00 | 0.00 | 35 | 1022.0 |
| 20260906192822 | 28 | 148 | 14.5 | 19.3 | 0.00 | 0.00 | 0.00 | 36 | 1023.0 |
| 20260906192322 | 28 | 191 | 8.0 | 11.3 | 0.00 | 0.00 | 0.00 | 35 | 1023.0 |
| 20260906191823 | 28 | 187 | 6.4 | 8.0 | 0.00 | 0.00 | 0.00 | 35 | 1023.0 |
| 20260906191322 | 28 | 129 | 11.3 | 17.7 | 0.00 | 0.00 | 0.00 | 35 | 1023.0 |
| 20260906190822 | 28 | 152 | 14.5 | 24.1 | 0.00 | 0.00 | 0.00 | 36 | 1023.0 |
| 20260906190322 | 27 | 171 | 9.7 | 14.5 | 0.00 | 0.00 | 0.00 | 36 | 1023.0 |
| 20260906185824 | 27 | 165 | 8.0 | 11.3 | 0.00 | 0.00 | 0.00 | 37 | 1023.0 |
| 20260906185322 | 28 | 147 | 14.5 | 17.7 | 0.00 | 0.00 | 0.00 | 36 | 1023.0 |
| 20260906184822 | 28 | 159 | 11.3 | 14.5 | 0.00 | 0.00 | 0.00 | 36 | 1023.0 |
| 20260906184322 | 28 | 144 | 14.5 | 20.9 | 0.00 | 0.00 | 0.00 | 36 | 1023.0 |
| 20260906183822 | 28 | 151 | 6.4 | 14.5 | 0.00 | 0.00 | 0.00 | 35 | 1023.0 |
| 20260906183323 | 28 | 158 | 11.3 | 16.1 | 0.00 | 0.00 | 0.00 | 36 | 1023.0 |
| 20260906182822 | 28 | 99 | 8.0 | 14.5 | 0.00 | 0.00 | 0.00 | 35 | 1023.0 |
| 20260906182324 | 27 | 133 | 12.9 | 17.7 | 0.00 | 0.00 | 0.00 | 37 | 1023.0 |
| 20260906181822 | 27 | 153 | 12.9 | 16.1 | 0.00 | 0.00 | 0.00 | 36 | 1024.0 |
| 20260906181322 | 27 | 169 | 9.7 | 14.5 | 0.00 | 0.00 | 0.00 | 36 | 1024.0 |
| 20260906180824 | 27 | 163 | 11.3 | 16.1 | 0.00 | 0.00 | 0.00 | 35 | 1024.0 |
| 20260906180322 | 27 | 188 | 8.0 | 9.7 | 0.00 | 0.00 | 0.00 | 36 | 1024.0 |
| 20260906175822 | 27 | 201 | 8.0 | 12.9 | 0.00 | 0.00 | 0.00 | 36 | 1024.0 |
| 20260906175322 | 27 | 174 | 9.7 | 14.5 | 0.00 | 0.00 | 0.00 | 35 | 1024.0 |
| 20260906174822 | 27 | 143 | 12.9 | 17.7 | 0.00 | 0.00 | 0.00 | 35 | 1024.0 |
| 20260906174322 | 27 | 183 | 8.0 | 12.9 | 0.00 | 0.00 | 0.00 | 35 | 1024.0 |
| 20260906173824 | 27 | 123 | 8.0 | 11.3 | 0.00 | 0.00 | 0.00 | 34 | 1024.0 |
| 20260906173322 | 27 | 173 | 6.4 | 12.9 | 0.00 | 0.00 | 0.00 | 35 | 1024.0 |
| 20260906172822 | 27 | 105 | 6.4 | 11.3 | 0.00 | 0.00 | 0.00 | 34 | 1024.0 |
| 20260906172322 | 27 | 123 | 6.4 | 12.9 | 0.00 | 0.00 | 0.00 | 34 | 1024.0 |
| 20260906171822 | 27 | 131 | 6.4 | 12.9 | 0.00 | 0.00 | 0.00 | 35 | 1024.0 |
| 20260906171322 | 27 | 162 | 9.7 | 14.5 | 0.00 | 0.00 | 0.00 | 35 | 1024.0 |
| 20260906170822 | 27 | 146 | 11.3 | 16.1 | 0.00 | 0.00 | 0.00 | 34 | 1024.0 |
| 20260906170322 | 27 | 104 | 1.6 | 6.4 | 0.00 | 0.00 | 0.00 | 34 | 1024.0 |
| 20260906165822 | 26 | 140 | 3.2 | 6.4 | 0.00 | 0.00 | 0.00 | 34 | 1024.0 |
| 20260906165322 | 26 | 147 | 6.4 | 9.7 | 0.00 | 0.00 | 0.00 | 35 | 1024.0 |
| 20260906164822 | 26 | 157 | 8.0 | 14.5 | 0.00 | 0.00 | 0.00 | 35 | 1024.0 |
| 20260906164322 | 26 | 64 | 1.6 | 3.2 | 0.00 | 0.00 | 0.00 | 36 | 1024.0 |
| 20260906163822 | 26 | 271 | 3.2 | 4.8 | 0.00 | 0.00 | 0.00 | 36 | 1024.0 |
| 20260906163322 | 26 | 71 | 1.6 | 3.2 | 0.00 | 0.00 | 0.00 | 35 | 1024.0 |
| 20260906162822 | 26 | 99 | 3.2 | 6.4 | 0.00 | 0.00 | 0.00 | 36 | 1024.0 |
| 20260906162322 | 26 | 142 | 6.4 | 9.7 | 0.00 | 0.00 | 0.00 | 36 | 1025.0 |
| 20260906161822 | 26 | 139 | 4.8 | 6.4 | 0.00 | 0.00 | 0.00 | 36 | 1025.0 |
| 20260906161323 | 26 | 148 | 3.2 | 8.0 | 0.00 | 0.00 | 0.00 | 36 | 1025.0 |
| 20260906160822 | 26 | 154 | 4.8 | 8.0 | 0.00 | 0.00 | 0.00 | 36 | 1025.0 |
| 20260906160322 | 25 | 52 | 0.0 | 1.6 | 0.00 | 0.00 | 0.00 | 38 | 1025.0 |
| 20260906155822 | 25 | 37 | 3.2 | 4.8 | 0.00 | 0.00 | 0.00 | 38 | 1025.0 |
| 20260906155322 | 25 | 345 | 0.0 | 3.2 | 0.00 | 0.00 | 0.00 | 39 | 1025.0 |
| 20260906154822 | 25 | 51 | 1.6 | 3.2 | 0.00 | 0.00 | 0.00 | 39 | 1025.0 |
| 20260906154323 | 25 | 148 | 0.0 | 3.2 | 0.00 | 0.00 | 0.00 | 40 | 1025.0 |
| 20260906153823 | 24 | 157 | 0.0 | 3.2 | 0.00 | 0.00 | 0.00 | 40 | 1025.0 |
| 20260906153322 | 23 | 348 | 1.6 | 4.8 | 0.00 | 0.00 | 0.00 | 42 | 1025.0 |
| 20260906152822 | 23 | 354 | 3.2 | 6.4 | 0.00 | 0.00 | 0.00 | 43 | 1024.0 |
| 20260906152322 | 23 | 14 | 3.2 | 4.8 | 0.00 | 0.00 | 0.00 | 42 | 1025.0 |
| 20260906151822 | 23 | 17 | 1.6 | 4.8 | 0.00 | 0.00 | 0.00 | 43 | 1025.0 |
| 20260906151322 | 22 | 28 | 3.2 | 6.4 | 0.00 | 0.00 | 0.00 | 44 | 1025.0 |
| 20260906150822 | 22 | 353 | 4.8 | 9.7 | 0.00 | 0.00 | 0.00 | 45 | 1024.0 |
| 20260906150322 | 22 | 13 | 3.2 | 6.4 | 0.00 | 0.00 | 0.00 | 45 | 1024.0 |
| 20260906145822 | 22 | 339 | 4.8 | 6.4 | 0.00 | 0.00 | 0.00 | 45 | 1024.0 |
| 20260906145322 | 22 | 343 | 3.2 | 6.4 | 0.00 | 0.00 | 0.00 | 45 | 1024.0 |
| 20260906144822 | 21 | 328 | 1.6 | 3.2 | 0.00 | 0.00 | 0.00 | 46 | 1025.0 |
| 20260906144323 | 21 | 11 | 3.2 | 4.8 | 0.00 | 0.00 | 0.00 | 47 | 1025.0 |
| 20260906143822 | 21 | 5 | 3.2 | 8.0 | 0.00 | 0.00 | 0.00 | 48 | 1025.0 |
| 20260906143323 | 20 | 359 | 3.2 | 4.8 | 0.00 | 0.00 | 0.00 | 49 | 1024.0 |
| 20260906142822 | 20 | 328 | 4.8 | 8.0 | 0.00 | 0.00 | 0.00 | 50 | 1024.0 |
| 20260906142322 | 20 | 347 | 1.6 | 3.2 | 0.00 | 0.00 | 0.00 | 52 | 1024.0 |
| 20260906141822 | 19 | 14 | 1.6 | 6.4 | 0.00 | 0.00 | 0.00 | 51 | 1024.0 |
| 20260906141322 | 19 | 341 | 3.2 | 6.4 | 0.00 | 0.00 | 0.00 | 52 | 1024.0 |
| 20260906140823 | 18 | 7 | 1.6 | 4.8 | 0.00 | 0.00 | 0.00 | 53 | 1024.0 |
| 20260906140322 | 18 | 1 | 3.2 | 4.8 | 0.00 | 0.00 | 0.00 | 53 | 1024.0 |
| 20260906135822 | 18 | 15 | 3.2 | 4.8 | 0.00 | 0.00 | 0.00 | 53 | 1024.0 |
| 20260906135322 | 18 | 40 | 1.6 | 3.2 | 0.00 | 0.00 | 0.00 | 54 | 1024.0 |
| 20260906134822 | 17 | 12 | 1.6 | 3.2 | 0.00 | 0.00 | 0.00 | 54 | 1024.0 |
| 20260906134322 | 17 | 332 | 1.6 | 3.2 | 0.00 | 0.00 | 0.00 | 55 | 1024.0 |
| 20260906133822 | 17 | 355 | 1.6 | 3.2 | 0.00 | 0.00 | 0.00 | 56 | 1024.0 |
| 20260906133323 | 17 | 38 | 1.6 | 3.2 | 0.00 | 0.00 | 0.00 | 56 | 1024.0 |
| 20260906132822 | 16 | 307 | 4.8 | 6.4 | 0.00 | 0.00 | 0.00 | 55 | 1024.0 |
| 20260906132322 | 16 | 306 | 4.8 | 4.8 | 0.00 | 0.00 | 0.00 | 56 | 1024.0 |
| 20260906131822 | 16 | 311 | 4.8 | 6.4 | 0.00 | 0.00 | 0.00 | 57 | 1024.0 |
| 20260906131322 | 16 | 316 | 3.2 | 4.8 | 0.00 | 0.00 | 0.00 | 56 | 1024.0 |
| 20260906130822 | 16 | 340 | 1.6 | 3.2 | 0.00 | 0.00 | 0.00 | 57 | 1024.0 |
| 20260906130322 | 15 | 314 | 3.2 | 4.8 | 0.00 | 0.00 | 0.00 | 57 | 1024.0 |
| 20260906125822 | 15 | 313 | 3.2 | 4.8 | 0.00 | 0.00 | 0.00 | 57 | 1024.0 |
| 20260906125322 | 15 | 329 | 3.2 | 3.2 | 0.00 | 0.00 | 0.00 | 57 | 1024.0 |
| 20260906124823 | 15 | 356 | 1.6 | 3.2 | 0.00 | 0.00 | 0.00 | 57 | 1024.0 |
| 20260906124322 | 15 | 334 | 1.6 | 3.2 | 0.00 | 0.00 | 0.00 | 57 | 1024.0 |
| 20260906123822 | 15 | 331 | 1.6 | 3.2 | 0.00 | 0.00 | 0.00 | 57 | 1024.0 |
| 20260906123322 | 15 | 360 | 0.0 | 0.0 | 0.00 | 0.00 | 0.00 | 57 | 1024.0 |
| 20260906122822 | 15 | 47 | 0.0 | 0.0 | 0.00 | 0.00 | 0.00 | 56 | 1024.0 |
| 20260906122322 | 15 | 344 | 3.2 | 3.2 | 0.00 | 0.00 | 0.00 | 58 | 1024.0 |
| 20260906121822 | 15 | 295 | 4.8 | 6.4 | 0.00 | 0.00 | 0.00 | 58 | 1024.0 |
| 20260906121323 | 15 | 317 | 3.2 | 6.4 | 0.00 | 0.00 | 0.00 | 59 | 1024.0 |
| 20260906120823 | 15 | 316 | 4.8 | 8.0 | 0.00 | 0.00 | 0.00 | 58 | 1024.0 |
| 20260906120322 | 15 | 329 | 3.2 | 6.4 | 0.00 | 0.00 | 0.00 | 58 | 1024.0 |
| 20260906115822 | 15 | 319 | 4.8 | 6.4 | 0.00 | 0.00 | 0.00 | 60 | 1024.0 |
| 20260906115322 | 15 | 325 | 3.2 | 4.8 | 0.00 | 0.00 | 0.00 | 61 | 1024.0 |
| 20260906114822 | 14 | 323 | 1.6 | 3.2 | 0.00 | 0.00 | 0.00 | 64 | 1024.0 |
| 20260906114322 | 14 | 323 | 3.2 | 4.8 | 0.00 | 0.00 | 0.00 | 64 | 1024.0 |
| 20260906113822 | 14 | 42 | 0.0 | 1.6 | 0.00 | 0.00 | 0.00 | 63 | 1024.0 |
| 20260906113322 | 15 | 24 | 3.2 | 6.4 | 0.00 | 0.00 | 0.00 | 61 | 1024.0 |
| 20260906112822 | 15 | 314 | 1.6 | 3.2 | 0.00 | 0.00 | 0.00 | 62 | 1024.0 |
| 20260906112323 | 15 | 347 | 3.2 | 6.4 | 0.00 | 0.00 | 0.00 | 63 | 1024.0 |
| 20260906111822 | 15 | 356 | 6.4 | 8.0 | 0.00 | 0.00 | 0.00 | 61 | 1024.0 |
| 20260906111323 | 15 | 8 | 4.8 | 8.0 | 0.00 | 0.00 | 0.00 | 61 | 1024.0 |
| 20260906110822 | 15 | 351 | 3.2 | 3.2 | 0.00 | 0.00 | 0.00 | 62 | 1024.0 |
| 20260906110323 | 14 | 360 | 1.6 | 3.2 | 0.00 | 0.00 | 0.00 | 64 | 1024.0 |
| 20260906105823 | 15 | 324 | 1.6 | 3.2 | 0.00 | 0.00 | 0.00 | 65 | 1024.0 |
| 20260906105322 | 16 | 15 | 1.6 | 3.2 | 0.00 | 0.00 | 0.00 | 61 | 1024.0 |
| 20260906104822 | 16 | 7 | 3.2 | 6.4 | 0.00 | 0.00 | 0.00 | 59 | 1024.0 |
| 20260906104323 | 16 | 333 | 3.2 | 4.8 | 0.00 | 0.00 | 0.00 | 60 | 1024.0 |
| 20260906103823 | 16 | 354 | 3.2 | 4.8 | 0.00 | 0.00 | 0.00 | 60 | 1024.0 |
| 20260906103322 | 16 | 337 | 3.2 | 4.8 | 0.00 | 0.00 | 0.00 | 62 | 1024.0 |
| 20260906102822 | 15 | 351 | 3.2 | 4.8 | 0.00 | 0.00 | 0.00 | 62 | 1024.0 |
| 20260906102322 | 15 | 348 | 1.6 | 4.8 | 0.00 | 0.00 | 0.00 | 63 | 1024.0 |
| 20260906101822 | 15 | 311 | 4.8 | 6.4 | 0.00 | 0.00 | 0.00 | 65 | 1024.0 |
| 20260906101322 | 15 | 340 | 1.6 | 3.2 | 0.00 | 0.00 | 0.00 | 65 | 1024.0 |
| 20260906100822 | 15 | 352 | 3.2 | 4.8 | 0.00 | 0.00 | 0.00 | 64 | 1024.0 |
| 20260906100322 | 16 | 2 | 4.8 | 6.4 | 0.00 | 0.00 | 0.00 | 63 | 1024.0 |
| 20260906095823 | 16 | 21 | 1.6 | 3.2 | 0.00 | 0.00 | 0.00 | 63 | 1024.0 |
| 20260906095322 | 16 | 20 | 1.6 | 4.8 | 0.00 | 0.00 | 0.00 | 62 | 1024.0 |
| 20260906094822 | 16 | 16 | 3.2 | 4.8 | 0.00 | 0.00 | 0.00 | 61 | 1024.0 |
| 20260906094322 | 16 | 333 | 3.2 | 3.2 | 0.00 | 0.00 | 0.00 | 62 | 1024.0 |
| 20260906093822 | 16 | 348 | 1.6 | 3.2 | 0.00 | 0.00 | 0.00 | 64 | 1024.0 |
| 20260906093323 | 16 | 355 | 3.2 | 4.8 | 0.00 | 0.00 | 0.00 | 65 | 1024.0 |
| 20260906092822 | 17 | 350 | 3.2 | 4.8 | 0.00 | 0.00 | 0.00 | 62 | 1024.0 |
| 20260906092322 | 17 | 21 | 1.6 | 3.2 | 0.00 | 0.00 | 0.00 | 60 | 1024.0 |
| 20260906091822 | 17 | 314 | 1.6 | 3.2 | 0.00 | 0.00 | 0.00 | 59 | 1024.0 |
| 20260906091324 | 17 | 32 | 1.6 | 1.6 | 0.00 | 0.00 | 0.00 | 59 | 1024.0 |
| 20260906090822 | 17 | 311 | 3.2 | 6.4 | 0.00 | 0.00 | 0.00 | 59 | 1024.0 |
| 20260906090322 | 16 | 318 | 3.2 | 6.4 | 0.00 | 0.00 | 0.00 | 64 | 1024.0 |
| 20260906085822 | 16 | 307 | 3.2 | 6.4 | 0.00 | 0.00 | 0.00 | 66 | 1024.0 |
| 20260906085322 | 16 | 324 | 1.6 | 4.8 | 0.00 | 0.00 | 0.00 | 67 | 1024.0 |
| 20260906084822 | 16 | 343 | 1.6 | 3.2 | 0.00 | 0.00 | 0.00 | 67 | 1024.0 |
| 20260906084323 | 16 | 341 | 1.6 | 4.8 | 0.00 | 0.00 | 0.00 | 68 | 1024.0 |
| 20260906083822 | 16 | 360 | 1.6 | 4.8 | 0.00 | 0.00 | 0.00 | 71 | 1024.0 |
| 20260906083322 | 16 | 7 | 3.2 | 4.8 | 0.00 | 0.00 | 0.00 | 71 | 1024.0 |
| 20260906082822 | 16 | 4 | 3.2 | 6.4 | 0.00 | 0.00 | 0.00 | 70 | 1024.0 |
| 20260906082322 | 16 | 353 | 4.8 | 8.0 | 0.00 | 0.00 | 0.00 | 69 | 1024.0 |
| 20260906081822 | 16 | 350 | 3.2 | 4.8 | 0.00 | 0.00 | 0.00 | 69 | 1024.0 |
| 20260906081322 | 16 | 28 | 3.2 | 8.0 | 0.00 | 0.00 | 0.00 | 69 | 1024.0 |
| 20260906080822 | 16 | 39 | 3.2 | 3.2 | 0.00 | 0.00 | 0.00 | 70 | 1024.0 |
| 20260906080323 | 16 | 12 | 3.2 | 4.8 | 0.00 | 0.00 | 0.00 | 71 | 1024.0 |
| 20260906075822 | 16 | 15 | 3.2 | 4.8 | 0.00 | 0.00 | 0.00 | 70 | 1024.0 |
| 20260906075322 | 17 | 359 | 0.0 | 1.6 | 0.00 | 0.00 | 0.00 | 69 | 1024.0 |
| 20260906074823 | 17 | 33 | 1.6 | 3.2 | 0.00 | 0.00 | 0.00 | 69 | 1024.0 |
| 20260906074322 | 17 | 335 | 3.2 | 3.2 | 0.00 | 0.00 | 0.00 | 69 | 1024.0 |
| 20260906073822 | 17 | 348 | 3.2 | 4.8 | 0.00 | 0.00 | 0.00 | 70 | 1024.0 |
| 20260906073322 | 17 | 331 | 4.8 | 6.4 | 0.00 | 0.00 | 0.00 | 71 | 1024.0 |
| 20260906072822 | 17 | 334 | 3.2 | 4.8 | 0.00 | 0.00 | 0.00 | 70 | 1024.0 |
| 20260906072322 | 17 | 348 | 1.6 | 4.8 | 0.00 | 0.00 | 0.00 | 69 | 1024.0 |
| 20260906071822 | 17 | 343 | 3.2 | 4.8 | 0.00 | 0.00 | 0.00 | 68 | 1024.0 |
| 20260906071322 | 17 | 284 | 3.2 | 4.8 | 0.00 | 0.00 | 0.00 | 68 | 1024.0 |
| 20260906070822 | 17 | 276 | 3.2 | 6.4 | 0.00 | 0.00 | 0.00 | 66 | 1024.0 |
| 20260906070322 | 17 | 290 | 3.2 | 4.8 | 0.00 | 0.00 | 0.00 | 68 | 1024.0 |
| 20260906065822 | 16 | 267 | 1.6 | 3.2 | 0.00 | 0.00 | 0.00 | 71 | 1024.0 |
| 20260906065324 | 16 | 278 | 4.8 | 8.0 | 0.00 | 0.00 | 0.00 | 73 | 1024.0 |
| 20260906064823 | 17 | 280 | 6.4 | 8.0 | 0.00 | 0.00 | 0.00 | 72 | 1024.0 |
| 20260906064322 | 17 | 295 | 0.0 | 1.6 | 0.00 | 0.00 | 0.00 | 72 | 1024.0 |
| 20260906063822 | 17 | 41 | 0.0 | 1.6 | 0.00 | 0.00 | 0.00 | 71 | 1024.0 |
| 20260906063322 | 16 | 244 | 1.6 | 3.2 | 0.00 | 0.00 | 0.00 | 70 | 1024.0 |
| 20260906062822 | 16 | 271 | 3.2 | 4.8 | 0.00 | 0.00 | 0.00 | 71 | 1024.0 |
| 20260906062322 | 16 | 308 | 1.6 | 3.2 | 0.00 | 0.00 | 0.00 | 72 | 1024.0 |
| 20260906061822 | 16 | 184 | 0.0 | 3.2 | 0.00 | 0.00 | 0.00 | 72 | 1024.0 |
| 20260906061322 | 16 | 282 | 3.2 | 3.2 | 0.00 | 0.00 | 0.00 | 70 | 1024.0 |
| 20260906060822 | 16 | 115 | 0.0 | 1.6 | 0.00 | 0.00 | 0.00 | 70 | 1024.0 |
| 20260906060322 | 16 | 340 | 4.8 | 6.4 | 0.00 | 0.00 | 0.00 | 71 | 1024.0 |
| 20260906055822 | 16 | 350 | 1.6 | 3.2 | 0.00 | 0.00 | 0.05 | 71 | 1024.0 |
| 20260906055322 | 16 | 346 | 3.2 | 6.4 | 0.00 | 0.00 | 0.05 | 71 | 1024.0 |
| 20260906054822 | 16 | 328 | 3.2 | 6.4 | 0.00 | 0.00 | 0.05 | 71 | 1024.0 |
| 20260906054323 | 16 | 357 | 4.8 | 6.4 | 0.00 | 0.00 | 0.05 | 70 | 1024.0 |
| 20260906053822 | 16 | 359 | 3.2 | 6.4 | 0.00 | 0.00 | 0.05 | 69 | 1024.0 |
| 20260906053322 | 16 | 3 | 3.2 | 6.4 | 0.00 | 0.00 | 0.05 | 69 | 1024.0 |
| 20260906052822 | 16 | 5 | 3.2 | 6.4 | 0.00 | 0.00 | 0.05 | 70 | 1024.0 |
| 20260906052322 | 16 | 344 | 0.0 | 3.2 | 0.00 | 0.00 | 0.05 | 69 | 1024.0 |
| 20260906051822 | 16 | 5 | 1.6 | 3.2 | 0.00 | 0.00 | 0.05 | 68 | 1024.0 |
| 20260906051323 | 16 | 24 | 3.2 | 3.2 | 0.00 | 0.00 | 0.05 | 68 | 1024.0 |
| 20260906050822 | 17 | 25 | 1.6 | 3.2 | 0.00 | 0.00 | 0.05 | 69 | 1024.0 |
| 20260906050322 | 17 | 350 | 3.2 | 4.8 | 0.00 | 0.00 | 0.05 | 67 | 1024.0 |
| 20260906045822 | 17 | 359 | 3.2 | 3.2 | 0.00 | 0.00 | 0.05 | 66 | 1024.0 |
| 20260906045322 | 17 | 58 | 0.0 | 1.6 | 0.00 | 0.00 | 0.05 | 67 | 1024.0 |
| 20260906044822 | 17 | 289 | 1.6 | 3.2 | 0.00 | 0.00 | 0.05 | 66 | 1024.0 |
| 20260906044322 | 17 | 355 | 0.0 | 1.6 | 0.00 | 0.00 | 0.05 | 67 | 1024.0 |
| 20260906043822 | 17 | 301 | 0.0 | 3.2 | 0.00 | 0.00 | 0.05 | 68 | 1024.0 |
| 20260906043322 | 17 | 290 | 4.8 | 4.8 | 0.00 | 0.00 | 0.05 | 67 | 1024.0 |
| 20260906042822 | 18 | 298 | 3.2 | 4.8 | 0.00 | 0.00 | 0.05 | 66 | 1024.0 |
| 20260906042322 | 17 | 305 | 1.6 | 3.2 | 0.00 | 0.00 | 0.05 | 65 | 1024.0 |
| 20260906041822 | 17 | 293 | 3.2 | 3.2 | 0.00 | 0.00 | 0.05 | 63 | 1024.0 |
| 20260906041322 | 18 | 312 | 3.2 | 4.8 | 0.00 | 0.00 | 0.05 | 60 | 1024.0 |
| 20260906040822 | 18 | 339 | 1.6 | 3.2 | 0.00 | 0.00 | 0.05 | 60 | 1024.0 |
| 20260906040322 | 18 | 300 | 1.6 | 3.2 | 0.00 | 0.00 | 0.05 | 60 | 1024.0 |
| 20260906035822 | 18 | 319 | 1.6 | 3.2 | 0.00 | 0.00 | 0.05 | 63 | 1024.0 |
| 20260906035322 | 18 | 287 | 6.4 | 8.0 | 0.00 | 0.00 | 0.05 | 62 | 1024.0 |
| 20260906034822 | 18 | 289 | 4.8 | 6.4 | 0.00 | 0.00 | 0.05 | 62 | 1024.0 |
| 20260906034322 | 18 | 291 | 4.8 | 8.0 | 0.00 | 0.00 | 0.05 | 62 | 1024.0 |
| 20260906033822 | 18 | 296 | 6.4 | 8.0 | 0.00 | 0.00 | 0.05 | 61 | 1024.0 |
| 20260906033324 | 18 | 290 | 6.4 | 8.0 | 0.00 | 0.00 | 0.05 | 59 | 1024.0 |
| 20260906032823 | 18 | 291 | 6.4 | 8.0 | 0.00 | 0.00 | 0.05 | 57 | 1024.0 |
| 20260906032322 | 18 | 286 | 4.8 | 8.0 | 0.00 | 0.00 | 0.05 | 56 | 1024.0 |
| 20260906031822 | 19 | 291 | 4.8 | 8.0 | 0.00 | 0.00 | 0.05 | 54 | 1024.0 |
| 20260906031322 | 19 | 297 | 4.8 | 9.7 | 0.00 | 0.00 | 0.05 | 54 | 1024.0 |
| 20260906030822 | 19 | 295 | 4.8 | 6.4 | 0.00 | 0.00 | 0.05 | 54 | 1024.0 |
| 20260906030322 | 19 | 291 | 6.4 | 9.7 | 0.00 | 0.00 | 0.05 | 51 | 1024.0 |
| 20260906025822 | 20 | 292 | 8.0 | 11.3 | 0.00 | 0.00 | 0.05 | 54 | 1024.0 |
| 20260906025324 | 20 | 254 | 4.8 | 9.7 | 0.00 | 0.00 | 0.05 | 51 | 1024.0 |
| 20260906024822 | 20 | 242 | 3.2 | 4.8 | 0.00 | 0.00 | 0.05 | 50 | 1024.0 |
| 20260906024322 | 20 | 191 | 4.8 | 6.4 | 0.00 | 0.00 | 0.05 | 50 | 1024.0 |
| 20260906023822 | 19 | 176 | 3.2 | 6.4 | 0.00 | 0.00 | 0.05 | 48 | 1024.0 |
| 20260906023322 | 19 | 144 | 4.8 | 8.0 | 0.00 | 0.00 | 0.05 | 53 | 1024.0 |
| 20260906022822 | 19 | 61 | 1.6 | 4.8 | 0.00 | 0.00 | 0.05 | 50 | 1023.0 |
| 20260906022322 | 20 | 308 | 0.0 | 1.6 | 0.00 | 0.00 | 0.05 | 49 | 1023.0 |
| 20260906021822 | 20 | 339 | 4.8 | 6.4 | 0.00 | 0.00 | 0.05 | 48 | 1023.0 |
| 20260906021322 | 20 | 334 | 4.8 | 6.4 | 0.00 | 0.00 | 0.05 | 50 | 1023.0 |
| 20260906020822 | 20 | 329 | 3.2 | 4.8 | 0.00 | 0.00 | 0.05 | 49 | 1023.0 |
| 20260906020322 | 20 | 326 | 3.2 | 3.2 | 0.00 | 0.00 | 0.05 | 47 | 1023.0 |
| 20260906015822 | 20 | 331 | 4.8 | 6.4 | 0.00 | 0.00 | 0.05 | 48 | 1023.0 |
| 20260906015322 | 20 | 294 | 6.4 | 9.7 | 0.00 | 0.00 | 0.05 | 47 | 1023.0 |
| 20260906014822 | 21 | 291 | 6.4 | 8.0 | 0.00 | 0.00 | 0.05 | 47 | 1023.0 |
| 20260906014322 | 21 | 299 | 6.4 | 8.0 | 0.00 | 0.00 | 0.05 | 47 | 1023.0 |
| 20260906013822 | 21 | 291 | 8.0 | 9.7 | 0.00 | 0.00 | 0.05 | 49 | 1023.0 |
| 20260906013323 | 22 | 290 | 8.0 | 11.3 | 0.00 | 0.00 | 0.05 | 47 | 1022.0 |
| 20260906012822 | 22 | 284 | 6.4 | 9.7 | 0.00 | 0.00 | 0.05 | 45 | 1022.0 |
| 20260906012322 | 23 | 298 | 3.2 | 6.4 | 0.00 | 0.00 | 0.05 | 42 | 1022.0 |
| 20260906011822 | 25 | 282 | 1.6 | 3.2 | 0.00 | 0.00 | 0.05 | 41 | 1022.0 |
| 20260906011322 | 25 | 346 | 1.6 | 1.6 | 0.00 | 0.00 | 0.05 | 35 | 1022.0 |
| 20260906010822 | 26 | 295 | 0.0 | 3.2 | 0.00 | 0.00 | 0.05 | 35 | 1022.0 |
| 20260906010322 | 26 | 266 | 1.6 | 3.2 | 0.00 | 0.00 | 0.05 | 35 | 1023.0 |
| 20260906005823 | 26 | 280 | 0.0 | 1.6 | 0.00 | 0.00 | 0.05 | 34 | 1023.0 |
| 20260906005323 | 27 | 60 | 1.6 | 3.2 | 0.00 | 0.00 | 0.05 | 34 | 1023.0 |
| 20260906004822 | 27 | 49 | 1.6 | 3.2 | 0.00 | 0.00 | 0.05 | 32 | 1023.0 |
| 20260906004322 | 27 | 228 | 1.6 | 3.2 | 0.00 | 0.00 | 0.05 | 33 | 1023.0 |
| 20260906003824 | 27 | 229 | 3.2 | 4.8 | 0.00 | 0.00 | 0.05 | 33 | 1023.0 |
| 20260906003322 | 27 | 351 | 1.6 | 3.2 | 0.00 | 0.00 | 0.05 | 32 | 1023.0 |
| 20260906002822 | 26 | 297 | 3.2 | 4.8 | 0.00 | 0.00 | 0.05 | 33 | 1023.0 |
| 20260906002322 | 26 | 309 | 1.6 | 3.2 | 0.00 | 0.00 | 0.05 | 34 | 1023.0 |
| 20260906001823 | 25 | 336 | 3.2 | 6.4 | 0.00 | 0.00 | 0.05 | 34 | 1023.0 |
| 20260906001323 | 25 | 323 | 1.6 | 3.2 | 0.00 | 0.00 | 0.05 | 38 | 1023.0 |
| 20260906000822 | 25 | 345 | 3.2 | 4.8 | 0.00 | 0.00 | 0.05 | 35 | 1023.0 |
| 20260906000322 | 25 | 337 | 1.6 | 3.2 | 0.00 | 0.00 | 0.05 | 36 | 1023.0 |
| 20260905235822 | 25 | 312 | 1.6 | 3.2 | 0.00 | 0.00 | 0.05 | 36 | 1023.0 |
| 20260905235322 | 25 | 285 | 3.2 | 3.2 | 0.00 | 0.00 | 0.05 | 43 | 1023.0 |
| 20260905234823 | 25 | 297 | 3.2 | 4.8 | 0.00 | 0.00 | 0.05 | 38 | 1023.0 |
| 20260905234322 | 25 | 301 | 4.8 | 6.4 | 0.00 | 0.00 | 0.05 | 39 | 1023.0 |
| 20260905233822 | 25 | 297 | 3.2 | 6.4 | 0.00 | 0.00 | 0.05 | 37 | 1023.0 |
| 20260905233322 | 25 | 276 | 3.2 | 4.8 | 0.00 | 0.00 | 0.05 | 37 | 1023.0 |
| 20260905232823 | 25 | 280 | 3.2 | 3.2 | 0.00 | 0.00 | 0.05 | 35 | 1023.0 |
| 20260905232321 | 26 | 249 | 1.6 | 3.2 | 0.00 | 0.00 | 0.05 | 35 | 1023.0 |
| 20260905231823 | 26 | 275 | 3.2 | 4.8 | 0.00 | 0.00 | 0.05 | 35 | 1023.0 |
| 20260905231322 | 26 | 290 | 3.2 | 4.8 | 0.00 | 0.00 | 0.05 | 34 | 1023.0 |
| 20260905230822 | 26 | 293 | 3.2 | 6.4 | 0.00 | 0.00 | 0.05 | 34 | 1023.0 |
| 20260905230323 | 26 | 289 | 3.2 | 4.8 | 0.00 | 0.00 | 0.05 | 34 | 1023.0 |
| 20260905225822 | 26 | 270 | 3.2 | 4.8 | 0.00 | 0.00 | 0.05 | 36 | 1023.0 |
| 20260905225322 | 26 | 232 | 4.8 | 6.4 | 0.00 | 0.00 | 0.05 | 35 | 1023.0 |
| 20260905224822 | 26 | 239 | 4.8 | 6.4 | 0.00 | 0.00 | 0.05 | 36 | 1023.0 |
| 20260905224322 | 26 | 281 | 4.8 | 6.4 | 0.00 | 0.00 | 0.05 | 35 | 1023.0 |
| 20260905223822 | 26 | 329 | 3.2 | 4.8 | 0.00 | 0.00 | 0.05 | 33 | 1023.0 |
| 20260905223322 | 26 | 336 | 1.6 | 3.2 | 0.00 | 0.00 | 0.05 | 33 | 1023.0 |
| 20260905222822 | 26 | 306 | 3.2 | 6.4 | 0.00 | 0.00 | 0.05 | 33 | 1023.0 |
| 20260905222322 | 26 | 1 | 1.6 | 3.2 | 0.00 | 0.00 | 0.05 | 32 | 1023.0 |
| 20260905221824 | 26 | 247 | 3.2 | 6.4 | 0.00 | 0.00 | 0.05 | 33 | 1023.0 |
| 20260905221322 | 26 | 221 | 3.2 | 6.4 | 0.00 | 0.00 | 0.05 | 34 | 1023.0 |
| 20260905220822 | 26 | 146 | 6.4 | 9.7 | 0.00 | 0.00 | 0.05 | 32 | 1023.0 |
| 20260905220323 | 26 | 161 | 3.2 | 3.2 | 0.00 | 0.00 | 0.05 | 34 | 1023.0 |
| 20260905215822 | 26 | 216 | 6.4 | 11.3 | 0.00 | 0.00 | 0.05 | 34 | 1023.0 |